Stations météo

Publicité
Toulouse/Blagnac, France (7630): Température de l'air & dewpoint: 13.01.2020 17:00:00 - 19.01.2020 17:00:00 (CET)Toulouse/Blagnac, France (7630): Température de l'air 5cm: 13.01.2020 17:00:00 - 19.01.2020 17:00:00 (CET)Toulouse/Blagnac, France (7630): Température de l'air -20cm & Température de l'air -100cm: 13.01.2020 17:00:00 - 19.01.2020 17:00:00 (CET)Toulouse/Blagnac, France (7630): Vitesse du vent & gusts: 13.01.2020 17:00:00 - 19.01.2020 17:00:00 (CET)Toulouse/Blagnac, France (7630): Direction du vent: 13.01.2020 17:00:00 - 19.01.2020 17:00:00 (CET)Toulouse/Blagnac, France (7630): reduced air pressure: 13.01.2020 17:00:00 - 19.01.2020 17:00:00 (CET)Toulouse/Blagnac, France (7630): visibility: 13.01.2020 17:00:00 - 19.01.2020 17:00:00 (CET)Toulouse/Blagnac, France (7630): Ensoleillement: 13.01.2020 17:00:00 - 19.01.2020 17:00:00 (CET)Toulouse/Blagnac, France (7630): Quantités de précipitations: 13.01.2020 17:00:00 - 19.01.2020 17:00:00 (CET)
Date & Time tt [°C] td [°C] tt 5cm [°C] tt -20cm [°C] tt -100cm [°C] ff [km/h] ff [knt] fx [km/h] fx [knt] dd ppp [hPa] vv [km] sd [min] rr [mm]
19.01.2020 17:00:00 8,9 -4,7 - - - 16 9 28 15 NNW 1032,0 30 60 -
19.01.2020 16:00:00 9,0 -3,9 11,7 7,8 10,6 18 10 38 20 N 1031,8 30 60 0,0
19.01.2020 15:00:00 8,8 -3,4 10,9 7,7 10,6 23 13 40 21 N 1031,3 32 60 0,0
19.01.2020 14:00:00 9,0 -3,2 11,9 7,7 10,6 20 11 39 21 N 1031,2 31 60 0,0
19.01.2020 13:00:00 8,2 -3,3 9,9 7,6 10,6 19 10 36 19 N 1031,3 33 60 0,0
19.01.2020 12:00:00 7,4 -2,4 9,7 7,6 10,6 17 9 32 17 N 1031,4 38 58 0,0
19.01.2020 11:00:00 7,0 -0,9 5,6 7,7 10,6 16 8 26 14 N 1030,9 36 46 0,0
19.01.2020 10:00:00 5,0 -0,4 3,6 7,7 10,6 10 6 22 12 NNW 1030,0 55 0 0,0
19.01.2020 09:00:00 4,6 -1,2 2,5 7,8 10,6 14 7 20 11 NNW 1028,9 60 0 0,0
19.01.2020 08:00:00 3,8 -0,4 2,7 7,8 10,6 10 5 14 8 NW 1027,7 60 0 0,0
19.01.2020 07:00:00 4,1 0,6 3,5 7,9 10,6 9 5 14 8 NW 1027,0 60 0 0,0
19.01.2020 06:00:00 5,0 0,9 4,0 7,8 10,6 11 6 14 8 NW 1026,0 60 0 0,0
19.01.2020 05:00:00 5,5 1,8 4,6 7,9 10,6 6 3 12 7 WNW 1025,6 60 0 0,0
19.01.2020 04:00:00 6,3 1,2 5,2 7,9 10,6 6 3 12 6 NNW 1024,6 48 0 0,0
19.01.2020 03:00:00 6,3 0,8 5,2 8,0 10,6 6 4 14 7 NNE 1024,1 53 0 0,0
19.01.2020 02:00:00 6,4 0,7 5,3 8,0 10,6 7 4 16 8 N 1023,7 53 0 0,0
19.01.2020 01:00:00 6,3 1,6 5,1 8,0 10,6 10 5 15 8 NNW 1023,3 41 0 0,0
19.01.2020 00:00:00 6,2 0,7 5,2 8,0 10,6 9 5 16 9 NW 1023,0 42 0 0,0
18.01.2020 23:00:00 6,8 0,0 5,2 8,1 10,6 5 3 14 7 NNE 1022,3 34 0 0,0
18.01.2020 22:00:00 7,7 -1,0 6,3 8,1 10,6 6 3 32 17 NNE 1021,9 40 0 0,0
18.01.2020 21:00:00 7,8 -0,9 6,5 8,1 10,6 18 10 36 19 ESE 1021,1 60 0 0,0
18.01.2020 20:00:00 7,9 -1,6 5,0 8,1 10,6 22 12 40 22 SE 1021,5 60 0 0,0
18.01.2020 19:00:00 8,1 1,9 4,8 8,1 10,6 11 6 20 11 ESE 1021,1 39 0 0,0
18.01.2020 18:00:00 9,0 3,0 6,8 8,0 10,5 8 4 24 13 E 1021,7 57 21 0,0
18.01.2020 17:00:00 9,6 3,1 9,6 8,0 10,5 13 7 26 14 E 1021,8 57 60 0,0
18.01.2020 16:00:00 9,7 2,8 9,2 7,9 10,6 15 8 24 13 E 1022,4 33 32 0,0
18.01.2020 15:00:00 9,6 1,5 9,6 7,8 10,6 14 8 27 15 E 1023,4 49 24 0,0
18.01.2020 14:00:00 10,4 3,9 12,9 7,7 10,6 18 10 30 16 E 1024,9 28 60 0,0
18.01.2020 13:00:00 8,9 4,3 9,5 7,7 10,6 16 9 28 15 E 1026,6 30 43 0,0
18.01.2020 12:00:00 7,0 4,8 7,0 7,7 10,6 12 7 18 10 E 1028,3 28 1 0,0
18.01.2020 11:00:00 5,8 4,0 4,0 7,7 10,5 12 7 21 11 ESE 1029,3 26 11 0,0
18.01.2020 10:00:00 3,4 3,0 1,8 7,8 10,5 9 5 14 8 E 1030,1 15 0 0,0
18.01.2020 09:00:00 2,3 1,7 0,8 7,9 10,6 8 5 20 11 SSW 1031,6 18 0 0,0
18.01.2020 08:00:00 2,4 2,0 0,4 7,9 10,6 4 2 11 6 ESE 1031,6 11 0 0,0
18.01.2020 07:00:00 2,4 2,0 0,3 8,1 10,6 3 1 11 6 S 1031,5 15 0 0,0
18.01.2020 06:00:00 2,0 1,6 -1,3 8,1 10,5 4 2 9 5 S 1031,5 9 0 0,0
18.01.2020 05:00:00 1,8 1,4 -1,9 8,3 10,6 5 3 10 5 SSE 1031,9 6 0 0,0
18.01.2020 04:00:00 2,5 1,9 -1,8 8,4 10,6 5 3 10 5 S 1032,2 9 0 0,0
18.01.2020 03:00:00 2,9 2,5 -1,1 8,5 10,6 3 2 11 6 SE 1032,6 22 0 0,0
18.01.2020 02:00:00 3,0 2,0 -0,7 8,5 10,6 9 5 12 6 SSW 1032,8 33 0 0,0
18.01.2020 01:00:00 4,5 2,7 2,2 8,6 10,5 8 4 24 13 SSW 1033,4 52 0 0,0
18.01.2020 00:00:00 6,2 3,7 4,8 8,7 10,6 17 9 30 16 W 1033,3 60 0 0,0
17.01.2020 23:00:00 6,7 4,4 5,0 8,7 10,5 21 12 34 19 WSW 1033,4 60 0 0,0
17.01.2020 22:00:00 6,5 4,2 5,1 8,8 10,5 19 10 34 19 WSW 1033,3 60 0 0,0
17.01.2020 21:00:00 6,5 4,5 5,2 8,8 10,6 18 10 31 17 WSW 1032,9 59 0 0,0
17.01.2020 20:00:00 7,1 4,4 5,4 8,8 10,5 17 9 31 17 WSW 1032,2 60 0 0,0
17.01.2020 19:00:00 7,5 5,3 6,3 8,8 10,5 16 9 35 19 WNW 1031,6 19 0 0,2
17.01.2020 18:00:00 8,5 5,1 7,2 8,8 10,5 24 13 37 20 W 1030,0 41 14 0,0
17.01.2020 17:00:00 9,4 5,2 8,6 8,8 10,5 24 13 42 23 W 1029,1 39 23 0,0
17.01.2020 16:00:00 9,4 5,6 9,1 8,8 10,5 26 14 43 23 W 1028,6 44 15 0,0
17.01.2020 15:00:00 8,8 5,7 8,7 8,8 10,5 32 17 49 27 WSW 1027,9 38 0 0,0
17.01.2020 14:00:00 8,5 5,9 7,5 8,8 10,5 26 14 41 22 W 1027,9 55 0 0,0
17.01.2020 13:00:00 7,8 5,8 6,8 8,8 10,5 32 17 51 28 WNW 1028,0 32 0 0,8
17.01.2020 12:00:00 7,6 6,4 6,2 8,8 10,5 32 17 79 42 WNW 1028,1 4,0 0 2,4
17.01.2020 11:00:00 9,6 7,4 8,5 8,8 10,5 13 7 22 12 WSW 1025,4 9 0 0,0
17.01.2020 10:00:00 8,8 7,2 8,2 8,8 10,5 7 4 16 9 S 1024,7 8 13 0,0
17.01.2020 09:00:00 8,8 7,7 6,3 8,8 10,5 9 5 16 9 SW 1024,4 8 12 0,0
17.01.2020 08:00:00 8,9 7,0 7,9 8,8 10,5 9 5 14 7 SW 1024,3 8 0 0,0
17.01.2020 07:00:00 9,2 7,3 8,6 8,8 10,5 7 4 14 8 S 1023,9 7 0 0,0
17.01.2020 06:00:00 9,5 7,4 8,6 8,8 10,5 6 3 12 7 NNW 1023,8 7 0 0,0
17.01.2020 05:00:00 9,5 7,3 8,9 8,8 10,5 5 3 18 10 SW 1023,1 8 0 0,0
17.01.2020 04:00:00 11,1 9,2 10,5 8,7 10,5 10 6 25 14 SSE 1022,8 15 0 0,0
17.01.2020 03:00:00 11,1 9,0 10,4 8,7 10,5 14 8 35 19 SSE 1022,8 15 0 0,0
17.01.2020 02:00:00 11,0 9,1 9,6 8,7 10,5 20 11 36 19 SSE 1022,6 14 0 0,0
17.01.2020 01:00:00 10,9 8,6 10,1 8,7 10,5 22 12 47 26 SE 1022,7 12 0 0,0
17.01.2020 00:00:00 10,8 8,6 8,6 8,7 10,5 24 13 39 21 SE 1023,2 11 0 0,0
16.01.2020 23:00:00 9,8 7,9 8,4 8,7 10,5 19 10 40 21 SE 1022,7 11 0 0,0
16.01.2020 22:00:00 9,9 7,3 8,3 8,8 10,5 22 12 39 21 SE 1023,1 14 0 0,0
16.01.2020 21:00:00 9,9 7,3 8,5 8,8 10,5 22 12 44 24 ESE 1022,8 11 0 0,0
16.01.2020 20:00:00 10,4 7,3 8,8 8,8 10,6 28 15 46 25 SE 1023,6 18 0 0,0
16.01.2020 19:00:00 10,6 7,1 9,0 8,8 10,6 22 12 39 21 SE 1023,6 24 0 0,0
16.01.2020 18:00:00 11,5 6,8 9,9 8,7 10,5 25 14 48 26 ESE 1023,8 30 19 0,0
16.01.2020 17:00:00 12,6 6,8 11,6 8,6 10,5 30 16 56 30 SE 1023,9 21 60 0,0
16.01.2020 16:00:00 13,4 6,9 15,3 8,4 10,5 31 17 54 29 SE 1023,9 18 60 0,0
16.01.2020 15:00:00 13,8 7,6 13,8 8,4 10,6 31 17 52 28 ESE 1023,8 17 58 0,0
16.01.2020 14:00:00 13,3 7,3 14,3 8,2 10,5 29 15 53 28 SE 1024,5 18 53 0,0
16.01.2020 13:00:00 12,6 7,9 14,1 8,2 10,6 37 20 56 30 SE 1024,9 20 58 0,0
16.01.2020 12:00:00 11,7 8,0 11,4 8,1 10,5 30 16 59 32 SE 1025,8 23 41 0,0
16.01.2020 11:00:00 10,6 8,2 9,7 8,1 10,5 33 18 55 30 SE 1026,1 21 7 0,0
16.01.2020 10:00:00 10,0 7,9 8,6 8,1 10,5 30 16 59 32 SE 1026,3 20 0 0,0
16.01.2020 09:00:00 9,6 7,9 6,5 8,1 10,5 22 12 40 22 SE 1026,2 25 0 0,0
16.01.2020 08:00:00 8,5 7,1 4,5 8,1 10,5 18 10 29 16 SE 1025,9 20 0 0,0
16.01.2020 07:00:00 7,0 6,3 1,0 8,2 10,6 9 5 18 10 ESE 1025,6 2,2 0 0,0
16.01.2020 06:00:00 8,1 6,9 4,5 8,3 10,5 10 5 17 9 ESE 1025,3 3,2 0 0,0
16.01.2020 05:00:00 7,9 6,8 4,9 8,3 10,5 9 5 21 12 SE 1025,5 16 0 0,0
16.01.2020 04:00:00 7,8 6,7 5,8 8,4 10,6 14 8 25 13 SE 1026,2 15 0 0,0
16.01.2020 03:00:00 8,0 6,9 5,9 8,4 10,5 16 9 24 13 SE 1026,6 13 0 0,0
16.01.2020 02:00:00 8,1 6,7 6,2 8,4 10,6 13 7 28 15 SE 1026,7 17 0 0,0
16.01.2020 01:00:00 8,3 7,2 5,6 8,4 10,6 11 6 21 11 SE 1027,0 13 0 0,0
16.01.2020 00:00:00 8,8 7,4 6,8 8,4 10,6 13 7 29 16 SSE 1027,3 15 0 0,0
15.01.2020 23:00:00 9,7 8,1 8,0 8,4 10,6 18 10 34 18 SE 1027,0 18 0 0,0
15.01.2020 22:00:00 10,3 8,1 8,1 8,5 10,6 19 10 31 17 SE 1026,8 22 0 0,0
15.01.2020 21:00:00 10,5 8,1 9,0 8,4 10,6 20 11 34 18 SE 1026,5 23 0 0,0
15.01.2020 20:00:00 11,1 8,0 9,1 8,4 10,6 20 11 36 19 SSE 1026,3 29 0 0,0
15.01.2020 19:00:00 11,0 7,1 9,2 8,4 10,6 18 10 33 18 SSE 1025,4 32 0 0,0
15.01.2020 18:00:00 11,7 6,8 9,6 8,3 10,6 17 9 32 17 SSE 1024,1 37 17 0,0
15.01.2020 17:00:00 12,8 6,6 11,7 8,2 10,6 21 12 34 19 SSE 1023,0 31 41 0,0
15.01.2020 16:00:00 13,0 6,8 12,9 8,1 10,6 21 11 37 20 SSE 1022,5 24 23 0,0
15.01.2020 15:00:00 13,3 6,6 14,4 8,0 10,6 19 10 42 23 SSE 1021,8 32 20 0,0
15.01.2020 14:00:00 13,4 6,5 15,3 7,8 10,6 29 16 46 25 SE 1021,3 21 60 0,0
15.01.2020 13:00:00 12,9 6,5 14,6 7,8 10,6 31 17 49 26 SE 1021,6 22 60 0,0
15.01.2020 12:00:00 12,3 6,6 13,3 7,7 10,6 27 15 44 24 SE 1021,5 25 60 0,0
15.01.2020 11:00:00 11,3 6,4 9,4 7,7 10,6 23 12 37 20 SE 1021,1 26 41 0,0
15.01.2020 10:00:00 9,8 6,3 8,4 7,7 10,7 19 10 29 16 SSE 1020,4 37 0 0,0
15.01.2020 09:00:00 9,6 6,1 8,1 7,7 10,6 18 10 38 21 SE 1019,9 37 0 0,0
15.01.2020 08:00:00 9,5 6,4 6,8 7,7 10,6 22 12 40 21 SE 1019,2 35 0 0,0
15.01.2020 07:00:00 8,8 6,1 7,0 7,7 10,6 11 6 22 12 SE 1019,6 35 0 0,0
15.01.2020 06:00:00 9,2 5,9 7,6 7,7 10,6 14 8 32 17 SSE 1019,1 39 0 0,0
15.01.2020 05:00:00 9,7 6,0 8,0 7,7 10,7 26 14 42 23 SE 1018,7 36 0 0,0
15.01.2020 04:00:00 9,9 6,2 7,6 7,7 10,7 25 14 45 25 SSE 1018,8 36 0 0,0
15.01.2020 03:00:00 9,4 5,9 7,7 7,7 10,7 22 12 35 19 SSE 1018,5 34 0 0,0
15.01.2020 02:00:00 9,8 6,0 7,9 7,7 10,7 23 12 58 31 SSE 1017,8 33 0 0,0
15.01.2020 01:00:00 10,4 6,2 8,4 7,7 10,7 31 17 56 31 SE 1017,1 33 0 0,0
15.01.2020 00:00:00 10,2 6,0 8,4 7,7 10,7 24 13 44 24 SE 1017,0 32 0 0,0
14.01.2020 23:00:00 10,4 6,9 8,6 7,7 10,7 29 15 49 26 SE 1017,2 34 0 0,0
14.01.2020 22:00:00 10,4 7,5 8,4 7,6 10,7 31 17 55 30 SE 1017,2 30 0 0,0
14.01.2020 21:00:00 10,1 7,3 8,2 7,6 10,7 24 13 46 25 SE 1017,5 29 0 0,0
14.01.2020 20:00:00 10,3 7,2 8,5 7,6 10,7 30 16 58 31 SE 1018,0 27 0 0,0
14.01.2020 19:00:00 10,5 6,6 8,9 7,5 10,7 31 17 51 27 SE 1017,9 33 0 0,0
14.01.2020 18:00:00 10,9 6,2 9,2 7,5 10,8 25 13 45 25 SE 1018,1 37 16 0,0
14.01.2020 17:00:00 11,7 6,0 10,8 7,3 10,7 27 14 49 27 SE 1017,9 22 60 0,0
14.01.2020 16:00:00 12,5 4,7 14,2 7,1 10,8 32 17 54 29 SE 1017,8 15 60 0,0
14.01.2020 15:00:00 12,7 5,8 13,4 7,0 10,8 27 14 60 32 SE 1017,4 15 60 0,0
14.01.2020 14:00:00 12,2 6,0 14,5 6,9 10,8 34 19 55 30 SE 1017,7 14 60 0,0
14.01.2020 13:00:00 11,9 5,7 13,4 6,8 10,8 33 18 60 32 SE 1018,0 14 60 0,0
14.01.2020 12:00:00 11,6 6,1 12,0 6,7 10,8 29 15 51 28 SE 1018,9 14 60 0,0
14.01.2020 11:00:00 10,3 5,7 7,6 6,7 10,8 24 13 41 22 SE 1019,3 14 55 0,0
14.01.2020 10:00:00 7,8 5,3 7,0 6,7 10,8 22 12 39 21 SSE 1019,0 19 29 0,0
14.01.2020 09:00:00 7,6 5,2 5,2 6,7 10,8 14 8 36 20 SE 1018,9 22 10 0,0
14.01.2020 08:00:00 7,3 4,9 5,4 6,7 10,8 24 13 40 22 SE 1017,9 18 0 0,0
14.01.2020 07:00:00 7,0 4,5 5,0 6,7 10,8 26 14 38 20 SE 1018,3 31 0 0,0
14.01.2020 06:00:00 6,8 3,8 5,5 6,7 10,8 16 9 34 18 SE 1018,5 38 0 0,0
14.01.2020 05:00:00 6,8 4,1 5,0 6,7 10,8 19 10 32 17 SSE 1018,4 33 0 0,0
14.01.2020 04:00:00 6,6 4,4 4,0 6,7 10,9 18 10 36 19 SE 1018,7 23 0 0,0
14.01.2020 03:00:00 5,7 4,0 3,9 6,8 10,9 16 9 32 17 SSE 1018,9 18 0 0,0
14.01.2020 02:00:00 5,8 4,3 1,7 6,8 10,9 14 8 23 12 SSE 1019,6 14 0 0,0
14.01.2020 01:00:00 5,2 3,4 2,5 6,8 10,9 9 5 24 13 SSE 1020,3 17 0 0,0
14.01.2020 00:00:00 6,1 3,6 4,0 6,8 10,9 17 9 34 18 SE 1019,9 19 0 0,0
13.01.2020 23:00:00 6,3 3,1 4,6 6,8 10,9 21 12 44 24 SE 1019,4 23 0 0,0
13.01.2020 22:00:00 6,7 2,4 4,3 6,8 10,9 22 12 38 20 SSE 1019,4 35 0 0,0
13.01.2020 21:00:00 6,5 3,1 4,5 6,9 10,9 20 11 37 20 SSE 1019,3 35 0 0,0
13.01.2020 20:00:00 6,7 3,5 5,1 6,8 10,9 22 12 45 24 SE 1019,6 30 0 0,0
13.01.2020 19:00:00 7,2 2,9 5,5 6,8 10,9 27 15 44 24 SE 1019,8 40 0 0,0
13.01.2020 18:00:00 7,9 1,9 6,2 6,7 10,9 30 16 47 26 SE 1020,0 48 14 0,0
13.01.2020 17:00:00 9,2 2,1 7,7 6,6 10,9 16 9 34 18 SE 1020,6 42 48 0,0

tt = Température de l'air
td = dewpoint
tt 5cm = Température de l'air 5cm
tt -20cm = Température de l'air -20cm
tt -100cm = Température de l'air -100cm
ff = Vitesse du vent
fx = gusts
dd = Direction du vent
ppp = reduced air pressure
vv = visibility
sd = Ensoleillement
rr = Quantités de précipitations

stations d'obs. à proximité